Tracking 23114 objects as of 16-May-2021
HD Live streaming from Space Station
objects crossing your sky now

ARIANE 1 DEB

Track ARIANE 1 DEB now!


NORAD ID: 40779
Int'l Code: 1979-104AG
Perigee: 660.3 km
Apogee: 38,559.9 km
Inclination: 19.4 °
Period: 694.6 minutes
Semi major axis: 25981 km
RCS: Unknown
Launch date: December 24, 1979
Source: European Space Agency (ESA)
Launch site: FRENCH GUIANA (FRGUI)

Note: This is SATELLITE DEBRIS
aabbcc
Your satellite tracking list
Your tracking list is empty




NASA's NSSDC Master Catalog

Two Line Element Set (TLE):
1 40779U 79104AG  21007.57976682 -.00000727  00000-0 -78062-2 0  9991
2 40779  19.4110  78.9525 7293689 207.9867 304.0567  2.07308445 54090
Source of the keplerian elements: AFSPC